Find Kosmos-2548

NORAD ID: 47230 Int'l Des: 2020-091 Owner: MORF Country: RU operational
LEOCIRCULARPOLAR

現在のビュー

3D地球を読み込み中...

About Kosmos-2548

Kosmos-2548 (NORAD 47230) is a satellite launched Dec 3, 2020 by MORF of RU. It operates in LEO, CIRCULAR, POLAR orbit with a mass of 4.00 kg.

次回通過

Passes for default location (London). Set your location on the main map for personalized predictions.

高度履歴

Loading altitude history...

軌道要素

1 47230U 20091D 26195.21390063 .00000100 00000-0 64876-3 0 9990
2 47230 82.5015 284.8376 0016095 132.4946 227.7497 12.42928581254413
Epoch: Jul 14, 2026 • Age: 9 hours

現在のステータス

高度 1493.1 km
遠地点 / 近地点 N/A
速度 7.12 km/s
衛星直下点 -12.30°S, 34.56°W
打ち上げ日 Dec 3, 2020
運用期間 5.6 years
タイプ other

技術仕様

分類 Payload
質量 4.00 kg
乾燥質量 4.00 kg
総質量 4.00 kg
長さ 0.30 m
直径 0.10 m
スパン 0.30 m
形状 Box
製造者 TSKHM
バスタイプ Cubesat 3U
フェーズステータス In Orbit
所有者/国 MORF/RU

Most Searched